Sioux Falls, SD

1:02 AM CDT on July 24, 2017 (GMT -0500)
Foss

Weather History for KFSD - January, 2013

Change the Weather History Date:

Monday, January 14, 2013

  Actual Average Record
Temperature  
Mean Temperature 13 °F 16 °F  
Max Temperature 23 °F 26 °F 50 °F (1901)
Min Temperature 3 °F 7 °F -31 °F (1916)
Degree Days  
Heating Degree Days 52 49  
Month to date heating degree days 652 686  
Since 1 July heating degree days 3592 3819  
Cooling Degree Days 0 0  
Month to date cooling degree days 0 0  
Year to date cooling degree days 0 0  
Moisture  
Dew Point 7 °F    
Average Humidity 75    
Maximum Humidity 91    
Minimum Humidity 59    
Precipitation  
Precipitation T in 0.02 in 0.52 in (1952)
Month to date precipitation 0.11 0.26  
Year to date precipitation 0.11 0.26  
Snow  
Snow T in 0.30 in 3.50 in (1930)
Month to date snowfall 0.1 3.5  
Since 1 July snowfall 13.9 20.4  
Snow Depth 1.00 in    
Sea Level Pressure  
Sea Level Pressure 30.36 in    
Wind  
Wind Speed 4 mph (SW)    
Max Wind Speed 15 mph    
Max Gust Speed 18 mph    
Visibility 10 miles    
Events Snow    
T = Trace of Precipitation, MM = Missing Value Source: NWS Daily Summary

Daily Weather History Graph

Daily Weather History Graph

Search for Another Location

Airport or City:

Trip Planner

Search our weather history database for the weather conditions in past years. The results will help you decide how hot, cold, wet, or windy it might be!

Date:

Astronomy

Jan. 14, 2013 Rise Set
Actual Time 7:57 AM CST 5:15 PM CST
Civil Twilight 7:25 AM CST 5:47 PM CST
Nautical Twilight 6:50 AM CST 6:22 PM CST
Astronomical Twilight 6:15 AM CST 6:56 PM CST
Moon 9:24 AM CST (1/14) 9:10 PM CST (1/14)
Length of Visible Light 10h 21m
Length of Day
9h 17m
Waxing Crescent, 11% of the Moon is Illuminated
Jan 14
Waxing Crescent
Jan 18
First Quarter
Jan 26
Full
Feb 3
Last Quarter
Feb 10
New

Hourly Weather History & Observations

Time (CST) Temp. Windchill Dew Point Humidity Pressure Visibility Wind Dir Wind Speed Gust Speed Precip Events Conditions
12:12 AM 3.2 °F - 1.4 °F 92% 30.24 in 10.0 mi Calm Calm - N/A   Mostly Cloudy
12:37 AM 8.6 °F - 5.0 °F 85% 30.24 in 9.0 mi Calm Calm - 0.00 in Snow Light Snow
12:56 AM 9.0 °F - 5.0 °F 84% 30.32 in 9.0 mi Calm Calm - 0.00 in Snow Light Snow
1:05 AM 8.6 °F 2.0 °F 6.8 °F 92% 30.24 in 9.0 mi SW 3.5 mph - 0.00 in Snow Light Snow
1:56 AM 10.9 °F 4.7 °F 7.0 °F 84% 30.34 in 9.0 mi West 3.5 mph - 0.00 in Snow Light Snow
2:24 AM 10.4 °F 4.0 °F 6.8 °F 85% 30.26 in 9.0 mi West 3.5 mph - 0.00 in Snow Light Snow
2:56 AM 9.0 °F - 5.0 °F 84% 30.36 in 9.0 mi Calm Calm - 0.00 in   Partly Cloudy
3:56 AM 6.1 °F -0.9 °F 3.0 °F 87% 30.38 in 10.0 mi West 3.5 mph - N/A   Clear
4:56 AM 5.0 °F - 1.9 °F 87% 30.39 in 10.0 mi Calm Calm - N/A   Clear
5:56 AM 5.0 °F -2.1 °F 1.0 °F 84% 30.40 in 10.0 mi WNW 3.5 mph - N/A   Clear
6:56 AM 5.0 °F - 1.0 °F 84% 30.43 in 10.0 mi Calm Calm - N/A   Scattered Clouds
7:56 AM 3.9 °F - 1.0 °F 88% 30.45 in 10.0 mi Calm Calm - N/A   Partly Cloudy
8:56 AM 8.1 °F - 3.9 °F 83% 30.47 in 10.0 mi Calm Calm - N/A   Mostly Cloudy
9:56 AM 10.0 °F - 3.9 °F 76% 30.47 in 10.0 mi Calm Calm - 0.00 in   Partly Cloudy
10:56 AM 12.0 °F 5.9 °F 6.1 °F 77% 30.47 in 10.0 mi SSW 3.5 mph - N/A   Clear
11:56 AM 15.1 °F 6.4 °F 7.0 °F 70% 30.44 in 10.0 mi WSW 5.8 mph - N/A   Clear
12:56 PM 17.1 °F 7.6 °F 9.0 °F 71% 30.38 in 10.0 mi SSW 6.9 mph - N/A   Clear
1:56 PM 19.9 °F 12.1 °F 10.0 °F 65% 30.36 in 10.0 mi WSW 5.8 mph - N/A   Clear
2:56 PM 21.9 °F 11.0 °F 10.9 °F 63% 30.35 in 10.0 mi SSW 10.4 mph - N/A   Clear
3:56 PM 23.0 °F 14.7 °F 10.9 °F 60% 30.35 in 10.0 mi SSW 6.9 mph - N/A   Clear
4:56 PM 21.0 °F 9.3 °F 12.0 °F 68% 30.35 in 10.0 mi South 11.5 mph - N/A   Clear
5:56 PM 19.0 °F 9.0 °F 10.9 °F 71% 30.35 in 10.0 mi South 8.1 mph - N/A   Clear
6:56 PM 18.0 °F 11.1 °F 10.9 °F 74% 30.35 in 10.0 mi South 4.6 mph - N/A   Clear
7:56 PM 18.0 °F 9.8 °F 10.9 °F 74% 30.35 in 10.0 mi SSW 5.8 mph - N/A   Clear
8:56 PM 18.0 °F 9.8 °F 9.0 °F 68% 30.33 in 10.0 mi SSW 5.8 mph - N/A   Clear
9:56 PM 16.0 °F 8.8 °F 8.1 °F 71% 30.33 in 10.0 mi SSW 4.6 mph - N/A   Clear
10:56 PM 15.1 °F 9.4 °F 8.1 °F 74% 30.32 in 10.0 mi SW 3.5 mph - N/A   Clear
11:56 PM 12.9 °F 5.2 °F 7.0 °F 77% 30.32 in 10.0 mi SSW 4.6 mph - N/A   Clear